Stations météo

Publicité
Cognac, France (7412): Température de l'air & dewpoint: 21.06.2019 12:00:00 - 27.06.2019 12:00:00 (CEST)Cognac, France (7412): Température de l'air 5cm: 21.06.2019 12:00:00 - 27.06.2019 12:00:00 (CEST)Cognac, France (7412): Température de l'air -20cm & Température de l'air -100cm: 21.06.2019 12:00:00 - 27.06.2019 12:00:00 (CEST)Cognac, France (7412): Vitesse du vent & gusts: 21.06.2019 12:00:00 - 27.06.2019 12:00:00 (CEST)Cognac, France (7412): Direction du vent: 21.06.2019 12:00:00 - 27.06.2019 12:00:00 (CEST)Cognac, France (7412): reduced air pressure: 21.06.2019 12:00:00 - 27.06.2019 12:00:00 (CEST)Cognac, France (7412): visibility: 21.06.2019 12:00:00 - 27.06.2019 12:00:00 (CEST)Cognac, France (7412): Ensoleillement: 21.06.2019 12:00:00 - 27.06.2019 12:00:00 (CEST)Cognac, France (7412): Quantités de précipitations: 21.06.2019 12:00:00 - 27.06.2019 12:00:00 (CEST)
Date & Time tt [°C] td [°C] tt 5cm [°C] tt -20cm [°C] tt -100cm [°C] ff [km/h] ff [knt] fx [km/h] fx [knt] dd ppp [hPa] vv [km] sd [min] rr [mm]
27.06.2019 12:00:00 30,7 19,7 36,5 23,8 18,7 11 6 21 11 ENE 1019,1 18 60 0,0
27.06.2019 11:00:00 29,6 18,4 33,9 23,9 18,6 3 2 10 5 E 1019,1 37 60 0,0
27.06.2019 10:00:00 27,4 17,8 30,0 23,9 18,6 6 3 18 10 S 1018,9 26 60 0,0
27.06.2019 09:00:00 26,3 15,7 26,3 23,9 18,6 11 6 17 9 SSE 1018,9 48 60 0,0
27.06.2019 08:00:00 23,5 16,5 21,0 24,0 18,6 8 4 15 8 ESE 1018,4 20 60 0,0
27.06.2019 07:00:00 21,8 15,6 20,4 24,0 18,5 10 6 13 7 E 1018,0 16 21 0,0
27.06.2019 06:00:00 22,5 16,3 20,7 24,0 18,5 11 6 17 9 E 1017,5 37 0 0,0
27.06.2019 05:00:00 23,5 17,5 21,6 24,0 18,5 12 6 16 9 E 1017,0 37 0 0,0
27.06.2019 04:00:00 24,0 18,4 22,1 24,0 18,6 12 6 16 9 E 1016,5 37 0 0,0
27.06.2019 03:00:00 25,5 18,9 23,5 24,0 18,6 13 7 16 9 E 1016,3 34 0 0,0
27.06.2019 02:00:00 25,8 20,1 23,3 23,9 18,5 9 5 18 10 E 1016,6 39 0 0,0
27.06.2019 01:00:00 27,7 20,8 25,5 23,8 18,6 15 8 18 10 E 1016,2 36 0 0,0
27.06.2019 00:00:00 29,2 20,9 26,8 23,7 18,6 10 6 14 8 ENE 1016,2 44 0 0,0
26.06.2019 23:00:00 29,2 21,4 26,6 23,6 18,6 9 5 11 6 ENE 1015,7 48 0 0,0
26.06.2019 22:00:00 31,3 21,2 28,8 23,5 18,6 9 5 11 6 ENE 1014,9 54 11 0,0
26.06.2019 21:00:00 33,7 20,5 32,0 23,3 18,5 8 5 19 10 ENE 1014,7 57 60 0,0
26.06.2019 20:00:00 36,3 19,3 36,8 23,2 18,5 14 8 26 14 ENE 1014,4 26 60 0,0
26.06.2019 19:00:00 36,7 18,7 37,3 23,1 18,6 17 9 25 14 ENE 1014,3 22 60 0,0
26.06.2019 18:00:00 36,1 17,8 38,6 22,9 18,5 20 11 30 16 E 1014,7 20 60 0,0
26.06.2019 17:00:00 36,0 17,2 38,7 22,9 18,5 15 8 25 13 E 1015,3 22 60 0,0
26.06.2019 16:00:00 34,9 16,2 38,5 22,7 18,5 15 8 29 16 ESE 1016,0 18 60 0,0
26.06.2019 15:00:00 33,7 17,0 37,2 22,7 18,5 14 7 30 16 ESE 1016,2 15 60 0,0
26.06.2019 14:00:00 32,4 15,4 36,2 22,7 18,4 19 10 35 19 ESE 1016,7 17 60 0,0
26.06.2019 13:00:00 31,1 14,7 34,7 22,7 18,4 19 11 32 18 E 1016,9 20 60 0,0
26.06.2019 12:00:00 30,1 14,6 33,0 22,7 18,4 17 9 33 18 ESE 1017,3 22 60 0,0
26.06.2019 11:00:00 28,4 16,3 32,7 22,8 18,4 15 8 24 13 E 1017,5 27 60 0,0
26.06.2019 10:00:00 26,7 16,6 29,1 22,9 18,4 9 5 13 7 E 1018,1 27 60 0,0
26.06.2019 09:00:00 24,4 16,1 25,9 22,9 18,4 8 4 11 6 E 1018,0 20 60 0,0
26.06.2019 08:00:00 22,3 17,4 20,1 23,0 18,4 6 3 10 5 NE 1017,5 35 60 0,0
26.06.2019 07:00:00 20,0 17,0 18,4 23,0 18,4 8 4 13 7 E 1016,9 17 21 0,0
26.06.2019 06:00:00 20,5 17,1 18,6 23,0 18,4 11 6 13 7 E 1016,3 22 0 0,0
26.06.2019 05:00:00 20,8 18,0 19,2 23,0 18,4 6 3 12 6 ENE 1016,0 17 0 0,0
26.06.2019 04:00:00 21,5 18,3 19,9 23,0 18,4 7 4 11 6 NE 1016,0 24 0 0,0
26.06.2019 03:00:00 22,7 18,5 21,0 23,0 18,4 9 5 12 6 NE 1016,3 24 0 0,0
26.06.2019 02:00:00 23,5 19,0 22,3 22,9 18,4 6 3 13 7 NNE 1016,7 30 0 0,0
26.06.2019 01:00:00 24,3 19,1 23,2 22,9 18,4 6 3 14 8 NNE 1017,0 34 0 0,0
26.06.2019 00:00:00 24,8 19,2 24,0 22,8 18,4 11 6 17 9 N 1017,5 41 0 0,0
25.06.2019 23:00:00 25,6 19,0 24,8 22,7 18,4 12 6 21 12 N 1017,5 46 0 0,0
25.06.2019 22:00:00 26,8 19,7 25,9 22,6 18,4 12 6 18 10 NNW 1017,1 41 0 0,0
25.06.2019 21:00:00 29,1 19,1 28,8 22,5 18,4 6 3 11 6 N 1017,0 49 19 0,0
25.06.2019 20:00:00 29,9 19,0 30,3 22,4 18,3 7 4 11 6 NNE 1016,9 35 43 0,0
25.06.2019 19:00:00 30,3 18,7 32,3 22,3 18,3 3 1 19 11 NNW 1017,1 35 60 0,0
25.06.2019 18:00:00 29,8 17,6 34,2 22,2 18,3 9 5 18 10 ENE 1016,8 29 58 0,0
25.06.2019 17:00:00 29,7 17,8 33,8 22,1 18,3 5 3 16 9 ENE 1017,2 17 60 0,0
25.06.2019 16:00:00 29,0 20,4 30,3 22,0 18,3 3 2 23 12 S 1017,2 29 34 0,0
25.06.2019 15:00:00 28,1 19,6 31,1 22,0 18,3 6 4 19 10 SSW 1017,3 25 15 0,0
25.06.2019 14:00:00 27,5 19,8 30,9 22,0 18,3 11 6 22 12 S 1017,7 27 23 0,0
25.06.2019 13:00:00 26,5 18,6 30,5 22,0 18,3 12 6 22 12 SSE 1017,6 26 47 0,0
25.06.2019 12:00:00 26,0 19,6 31,8 22,1 18,3 10 5 19 10 S 1017,5 32 56 0,0
25.06.2019 11:00:00 24,5 19,8 25,8 22,1 18,4 5 3 12 6 SSW 1017,3 21 32 0,0
25.06.2019 10:00:00 22,9 19,5 22,9 22,2 18,4 8 5 14 8 S 1017,1 14 49 0,0
25.06.2019 09:00:00 20,7 18,8 20,7 22,2 18,4 10 5 15 8 S 1016,7 20 2 0,0
25.06.2019 08:00:00 19,7 18,5 19,0 22,3 18,2 9 5 16 9 SSW 1016,2 15 0 0,0
25.06.2019 07:00:00 19,1 18,3 18,1 22,3 18,2 5 3 9 5 ESE 1015,1 8 0 0,0
25.06.2019 06:00:00 19,6 18,4 19,0 22,3 18,2 5 3 16 9 WSW 1014,9 14 0 0,0
25.06.2019 05:00:00 20,5 18,8 19,9 22,3 18,1 8 4 12 7 WSW 1014,6 16 0 0,0
25.06.2019 04:00:00 21,4 19,0 20,6 22,3 18,1 7 4 10 5 WSW 1014,4 20 0 0,0
25.06.2019 03:00:00 22,3 19,1 20,9 22,3 18,1 4 2 9 5 WSW 1014,2 27 0 0,0
25.06.2019 02:00:00 22,0 18,8 20,6 22,2 18,1 5 3 7 4 W 1014,1 29 0 0,0
25.06.2019 01:00:00 21,9 18,9 20,4 22,2 18,1 3 2 20 11 ENE 1013,7 27 0 0,0
25.06.2019 00:00:00 23,4 19,3 22,2 22,1 18,1 4 2 9 5 NNW 1013,5 35 0 0,0
24.06.2019 23:00:00 24,2 19,5 22,1 22,0 18,1 0 0 8 4 N 1013,4 30 0 0,0
24.06.2019 22:00:00 26,0 18,9 22,8 21,9 18,1 2 1 9 5 SE 1012,9 20 0 0,0
24.06.2019 21:00:00 27,0 18,8 26,3 21,8 18,1 0 0 20 11 N 1012,9 49 0 0,0
24.06.2019 20:00:00 28,1 19,1 28,0 21,6 18,1 12 7 28 15 S 1012,8 42 3 0,0
24.06.2019 19:00:00 29,1 18,8 29,4 21,5 18,1 18 10 27 15 S 1012,8 42 0 0,0
24.06.2019 18:00:00 29,8 17,3 30,3 21,4 18,0 6 4 22 12 ESE 1011,7 57 17 0,0
24.06.2019 17:00:00 30,8 17,1 33,0 21,4 18,0 12 6 22 12 SE 1012,4 21 43 0,0
24.06.2019 16:00:00 30,1 19,8 31,7 21,3 18,0 8 5 24 13 E 1012,4 36 15 0,0
24.06.2019 15:00:00 29,7 18,5 33,1 21,3 18,0 13 7 26 14 ENE 1012,7 26 47 0,0
24.06.2019 14:00:00 28,8 18,6 33,4 21,3 18,0 19 11 31 17 E 1012,8 23 60 0,0
24.06.2019 13:00:00 27,4 18,4 29,8 21,3 18,0 19 11 29 16 NE 1013,1 26 48 0,0
24.06.2019 12:00:00 25,8 17,4 26,0 21,4 18,0 21 11 32 18 NNE 1013,7 29 49 0,0
24.06.2019 11:00:00 24,2 17,0 24,5 21,4 18,0 19 11 36 19 N 1014,2 34 19 0,0
24.06.2019 10:00:00 22,6 16,6 22,9 21,5 18,0 16 9 28 15 N 1014,3 37 0 0,0
24.06.2019 09:00:00 22,0 15,8 21,6 21,5 18,0 10 6 22 12 N 1014,2 35 3 0,0
24.06.2019 08:00:00 20,7 16,3 19,2 21,5 17,9 13 7 33 18 NNE 1013,4 37 24 0,0
24.06.2019 07:00:00 19,6 16,4 18,9 21,6 18,0 18 10 31 17 N 1013,4 29 0 0,0
24.06.2019 06:00:00 19,6 17,0 19,0 21,6 17,9 12 7 21 11 NW 1013,3 26 0 0,0
24.06.2019 05:00:00 19,7 17,5 18,7 21,6 18,0 9 5 16 8 N 1013,0 24 0 0,0
24.06.2019 04:00:00 19,1 17,4 18,2 21,6 18,0 10 5 14 8 N 1012,9 21 0 0,0
24.06.2019 03:00:00 19,5 17,3 18,6 21,6 18,0 8 5 10 6 E 1013,5 19 0 0,0
24.06.2019 02:00:00 19,9 17,5 18,3 21,5 18,0 6 3 10 5 NE 1013,9 24 0 0,0
24.06.2019 01:00:00 20,7 17,7 20,0 21,4 18,0 8 5 18 10 NNE 1014,1 27 0 0,0
24.06.2019 00:00:00 21,5 17,7 20,8 21,4 18,0 8 4 14 7 NW 1014,5 36 0 0,0
23.06.2019 23:00:00 22,6 17,7 21,3 21,2 18,0 6 3 9 5 W 1014,2 34 0 0,0
23.06.2019 22:00:00 24,2 17,7 22,6 21,1 17,9 5 3 12 6 NW 1013,3 16 8 0,0
23.06.2019 21:00:00 26,4 17,2 26,3 20,9 17,9 9 5 16 9 W 1013,0 55 46 0,0
23.06.2019 20:00:00 27,7 16,3 28,4 20,8 17,9 13 7 24 13 SW 1012,7 41 39 0,0
23.06.2019 19:00:00 29,3 16,1 30,1 20,7 17,9 12 6 27 15 WSW 1012,2 29 24 0,0
23.06.2019 18:00:00 29,6 14,2 31,3 20,5 17,9 18 10 37 20 WSW 1011,9 21 12 0,0
23.06.2019 17:00:00 31,1 17,0 32,6 20,4 17,9 19 11 32 17 SSW 1011,7 14 54 0,0
23.06.2019 16:00:00 30,9 17,6 34,8 20,4 17,9 15 8 30 16 S 1011,5 17 60 0,0
23.06.2019 15:00:00 30,1 16,5 32,4 20,4 17,9 17 9 29 16 S 1011,3 23 56 0,0
23.06.2019 14:00:00 28,7 16,3 33,2 20,4 17,9 17 9 27 15 SE 1011,5 31 60 0,0
23.06.2019 13:00:00 26,5 17,0 27,3 20,4 17,9 12 6 26 14 SE 1011,8 44 42 0,0
23.06.2019 12:00:00 25,2 15,5 26,8 20,5 17,9 15 8 23 13 SE 1011,8 60 32 0,0
23.06.2019 11:00:00 23,7 16,7 25,7 20,5 17,9 13 7 23 12 E 1011,9 31 47 0,0
23.06.2019 10:00:00 21,3 16,0 19,6 20,6 17,9 16 9 23 12 E 1012,0 31 55 0,0
23.06.2019 09:00:00 18,1 15,7 17,4 20,7 17,9 13 7 19 11 E 1012,1 34 9 0,0
23.06.2019 08:00:00 16,6 15,0 15,7 20,7 17,9 11 6 16 9 E 1012,4 24 49 0,0
23.06.2019 07:00:00 15,8 14,5 14,9 20,8 17,9 12 6 15 8 E 1012,3 9 22 0,0
23.06.2019 06:00:00 15,8 14,5 14,3 20,8 17,9 10 6 14 8 E 1012,2 19 0 0,0
23.06.2019 05:00:00 15,5 14,5 14,2 20,8 17,9 11 6 14 7 ENE 1012,8 13 0 0,0
23.06.2019 04:00:00 16,5 14,9 14,7 20,8 17,9 12 7 14 8 E 1012,9 17 0 0,0
23.06.2019 03:00:00 16,9 14,7 15,1 20,8 17,9 6 3 10 5 ENE 1013,4 32 0 0,0
23.06.2019 02:00:00 17,1 14,7 15,2 20,7 17,9 2 1 8 5 E 1013,9 40 0 0,0
23.06.2019 01:00:00 19,2 15,1 17,0 20,7 17,9 7 4 8 5 ENE 1014,1 51 0 0,0
23.06.2019 00:00:00 19,9 15,1 17,7 20,6 17,9 6 3 9 5 NE 1014,5 51 0 0,0
22.06.2019 23:00:00 20,9 15,2 18,3 20,4 17,9 6 4 9 5 E 1014,7 60 0 0,0
22.06.2019 22:00:00 22,0 14,6 20,2 20,3 17,9 8 4 11 6 ENE 1014,4 60 0 0,0
22.06.2019 21:00:00 24,1 14,8 23,0 20,2 17,9 9 5 21 11 ENE 1014,3 44 53 0,0
22.06.2019 20:00:00 24,9 14,4 26,1 20,0 17,9 14 8 20 11 ENE 1014,5 25 54 0,0
22.06.2019 19:00:00 24,9 14,4 27,0 19,9 17,9 14 7 27 15 ENE 1014,6 19 52 0,0
22.06.2019 18:00:00 24,4 14,5 26,4 19,7 17,9 12 7 24 13 E 1015,2 52 9 0,0
22.06.2019 17:00:00 25,1 14,5 27,4 19,6 17,9 13 7 23 12 E 1015,7 23 46 0,0
22.06.2019 16:00:00 24,4 14,5 27,4 19,6 17,9 16 9 29 15 E 1016,3 21 45 0,0
22.06.2019 15:00:00 24,2 13,4 27,7 19,5 17,9 18 10 32 17 ENE 1016,8 20 47 0,0
22.06.2019 14:00:00 24,1 12,7 28,1 19,5 17,9 16 8 29 15 ENE 1017,3 21 60 0,0
22.06.2019 13:00:00 23,4 11,1 28,8 19,6 17,9 16 9 30 16 E 1017,7 52 60 0,0
22.06.2019 12:00:00 22,1 10,6 27,4 19,6 17,9 12 6 26 14 NNE 1018,2 44 60 0,0
22.06.2019 11:00:00 21,5 12,1 25,3 19,7 17,8 12 7 21 11 N 1018,5 43 60 0,0
22.06.2019 10:00:00 19,2 12,7 23,3 19,8 17,8 10 6 16 9 NE 1019,1 53 60 0,0
22.06.2019 09:00:00 17,8 12,0 18,9 19,9 17,8 5 3 9 5 NNE 1019,5 60 60 0,0
22.06.2019 08:00:00 15,3 13,5 13,1 19,9 17,8 0 0 3 2 N 1019,5 18 60 0,0
22.06.2019 07:00:00 12,9 12,1 9,3 20,0 17,8 0 0 5 3 N 1019,4 6 22 0,2
22.06.2019 06:00:00 12,1 11,2 9,6 20,0 17,8 0 0 9 5 N 1019,2 9 0 0,0
22.06.2019 05:00:00 12,8 12,2 10,4 20,0 17,8 7 4 9 5 E 1019,0 1,5 0 0,0
22.06.2019 04:00:00 13,2 12,4 10,3 20,1 17,8 5 3 7 4 ENE 1019,4 7 0 0,0
22.06.2019 03:00:00 13,9 12,5 11,9 20,1 17,8 5 3 7 4 E 1019,7 12 0 0,0
22.06.2019 02:00:00 15,1 13,3 14,1 20,1 17,8 6 3 10 5 W 1020,4 28 0 0,0
22.06.2019 01:00:00 15,7 13,4 14,3 20,0 17,8 7 4 9 5 W 1020,7 34 0 0,0
22.06.2019 00:00:00 16,4 13,5 14,6 20,0 17,8 0 0 9 5 N 1020,8 45 0 0,0
21.06.2019 23:00:00 16,9 14,0 15,2 20,0 17,8 9 5 10 5 ESE 1020,6 35 0 0,0
21.06.2019 22:00:00 18,1 14,0 16,6 19,9 17,8 6 3 13 7 S 1020,2 58 11 0,0
21.06.2019 21:00:00 19,6 14,2 19,7 19,8 17,8 12 6 23 12 SSE 1019,9 32 60 0,0
21.06.2019 20:00:00 21,8 10,6 23,4 19,8 17,8 13 7 21 11 ENE 1019,3 48 60 0,0
21.06.2019 19:00:00 22,2 9,7 24,4 19,7 17,8 10 5 23 12 NE 1018,8 48 53 0,0
21.06.2019 18:00:00 22,5 10,3 24,4 19,7 17,8 18 10 27 14 NE 1018,8 40 12 0,0
21.06.2019 17:00:00 22,4 8,9 24,4 19,7 17,8 12 6 28 15 NE 1018,9 60 15 0,0
21.06.2019 16:00:00 22,4 9,2 26,0 19,8 17,8 15 8 27 14 ENE 1018,9 42 41 0,0
21.06.2019 15:00:00 22,0 10,5 23,1 19,8 17,8 15 8 23 12 NNE 1019,0 52 4 0,0
21.06.2019 14:00:00 20,9 11,5 22,3 19,8 17,8 16 9 24 13 N 1019,2 60 5 0,0
21.06.2019 13:00:00 20,1 11,0 21,5 19,9 17,8 16 9 22 12 NNE 1019,3 53 0 0,0
21.06.2019 12:00:00 19,8 10,8 21,0 20,0 17,7 14 8 21 11 NNE 1019,3 48 0 0,0

tt = Température de l'air
td = dewpoint
tt 5cm = Température de l'air 5cm
tt -20cm = Température de l'air -20cm
tt -100cm = Température de l'air -100cm
ff = Vitesse du vent
fx = gusts
dd = Direction du vent
ppp = reduced air pressure
vv = visibility
sd = Ensoleillement
rr = Quantités de précipitations

stations d'obs. à proximité